Retour au catalogue

STARLINK-5655

ActifCommunicationsVLEO
NORAD 55336·PAYLOAD·🇺🇸 United States

Lancé Jan 26, 2023 depuis Cape Canaveral Space Force Station

Loading…

Prochains Passages (prochaines 24 heures)

TLE

FraisSource: CelesTrak SupGP

Époque: Sep 15, 2026, 01:55 UTC

1 55336C 23013F   26258.08034722  .00024075  00000+0  87182-3 0  2584
2 55336  43.0012 299.1205 0001672 269.5805 218.7947 15.27572566    18

Suivez STARLINK-5655 en temps réel avec AllMySat

Download on the App Store